When you browse on this site, cookies collect data to enhance your experience and personalize the content and advertising you see.
Visit our Privacy Policy to learn more. By continuing to use the site, you agree to this use of cookies and data.
  • In Germany
  • List of Countries
  • For 7 days
  • Water Temperature
  • Satellite Maps
  • Weather Map
  • Weather Widgets
  • user-avatar
    Login

    Hourly Weather Kabul

    Today, 19 July, Friday

    Time Temperature Precipitation Wind Pressure Humidity
    00:00 +23°C° 0 mm 2 mps 608 mmHg 64%
    01:00 +23°C° 0 mm 1 mps 608 mmHg 68%
    02:00 +22°C° 0 mm 1 mps 607 mmHg 72%
    03:00 +21°C° 0 mm 1 mps 607 mmHg 74%
    04:00 +21°C° 0 mm 1 mps 607 mmHg 76%
    05:00 +20°C° 0 mm 1 mps 607 mmHg 77%
    06:00 +22°C° 0 mm 1 mps 608 mmHg 67%
    07:00 +22°C° 0 mm 0 mps 609 mmHg 57%
    08:00 +24°C° 0 mm 0 mps 610 mmHg 47%
    09:00 +27°C° 0 mm 1 mps 610 mmHg 38%
    10:00 +29°C° 0 mm 1 mps 611 mmHg 28%
    11:00 +31°C° 0 mm 2 mps 611 mmHg 19%
    12:00 +32°C° 0 mm 2 mps 611 mmHg 16%
    13:00 +34°C° 0 mm 3 mps 611 mmHg 14%
    14:00 +36°C° 0 mm 3 mps 611 mmHg 12%
    15:00 +36°C° 0 mm 4 mps 611 mmHg 13%
    16:00 +36°C° 0 mm 4 mps 611 mmHg 14%
    17:00 +36°C° 0 mm 5 mps 611 mmHg 15%
    18:00 +33°C° 0 mm 4 mps 610 mmHg 23%
    19:00 +30°C° 0 mm 4 mps 610 mmHg 32%
    20:00 +28°C° 0 mm 3 mps 609 mmHg 41%
    21:00 +27°C° 0 mm 3 mps 609 mmHg 46%
    22:00 +26°C° 0 mm 2 mps 609 mmHg 51%
    23:00 +24°C° 0 mm 2 mps 609 mmHg 55%

    Tomorrow, 20 July, Saturday

    Time Temperature Precipitation Wind Pressure Humidity
    00:00 +24°C° 0 mm 1 mps 609 mmHg 59%
    01:00 +23°C° 0 mm 1 mps 608 mmHg 62%
    02:00 +22°C° 0 mm 1 mps 608 mmHg 66%
    03:00 +21°C° 0 mm 1 mps 608 mmHg 68%
    04:00 +19°C° 0 mm 0 mps 608 mmHg 70%
    05:00 +18°C° 0 mm 0 mps 607 mmHg 72%
    06:00 +20°C° 0 mm 0 mps 609 mmHg 63%
    07:00 +24°C° 0 mm 1 mps 610 mmHg 54%
    08:00 +26°C° 0 mm 1 mps 611 mmHg 44%
    09:00 +28°C° 0 mm 1 mps 611 mmHg 35%
    10:00 +30°C° 0 mm 1 mps 612 mmHg 26%
    11:00 +32°C° 0 mm 2 mps 612 mmHg 17%
    12:00 +34°C° 0 mm 2 mps 612 mmHg 15%
    13:00 +35°C° 0 mm 2 mps 612 mmHg 13%
    14:00 +36°C° 0 mm 3 mps 613 mmHg 11%
    15:00 +36°C° 0 mm 3 mps 612 mmHg 11%
    16:00 +37°C° 0 mm 3 mps 612 mmHg 11%
    17:00 +37°C° 0 mm 4 mps 612 mmHg 11%
    18:00 +34°C° 0 mm 3 mps 612 mmHg 18%
    19:00 +31°C° 0 mm 3 mps 611 mmHg 25%
    20:00 +29°C° 0 mm 3 mps 610 mmHg 33%
    21:00 +28°C° 0 mm 2 mps 610 mmHg 38%
    22:00 +26°C° 0 mm 2 mps 610 mmHg 43%
    23:00 +25°C° 0 mm 1 mps 610 mmHg 48%

    Day after tomorrow, 21 July, Sunday

    Time Temperature Precipitation Wind Pressure Humidity
    00:00 +24°C° 0 mm 1 mps 609 mmHg 50%
    01:00 +23°C° 0 mm 1 mps 609 mmHg 52%
    02:00 +23°C° 0 mm 1 mps 609 mmHg 54%
    03:00 +22°C° 0 mm 1 mps 608 mmHg 54%
    04:00 +21°C° 0 mm 1 mps 608 mmHg 55%
    05:00 +21°C° 0 mm 1 mps 608 mmHg 55%
    06:00 +21°C° 0 mm 0 mps 609 mmHg 47%
    07:00 +23°C° 0 mm 0 mps 610 mmHg 38%
    08:00 +26°C° 0 mm 0 mps 611 mmHg 30%
    09:00 +29°C° 0 mm 1 mps 612 mmHg 24%
    10:00 +31°C° 0 mm 1 mps 612 mmHg 19%
    11:00 +34°C° 0 mm 2 mps 612 mmHg 13%
    12:00 +35°C° 0 mm 2 mps 612 mmHg 12%
    13:00 +36°C° 0 mm 3 mps 613 mmHg 11%
    14:00 +37°C° 0 mm 3 mps 613 mmHg 9%
    15:00 +37°C° 0 mm 4 mps 612 mmHg 9%
    16:00 +37°C° 0 mm 5 mps 612 mmHg 9%
    17:00 +39°C° 0 mm 7 mps 612 mmHg 9%
    18:00 +35°C° 0 mm 5 mps 611 mmHg 12%
    19:00 +33°C° 0 mm 4 mps 611 mmHg 14%
    20:00 +30°C° 0 mm 3 mps 610 mmHg 17%
    21:00 +28°C° 0 mm 3 mps 610 mmHg 18%
    22:00 +27°C° 0 mm 2 mps 610 mmHg 20%
    23:00 +25°C° 0 mm 2 mps 610 mmHg 22%

    22 July, Monday

    Time Temperature Precipitation Wind Pressure Humidity
    00:00 +25°C° 0 mm 1 mps 609 mmHg 22%
    01:00 +24°C° 0 mm 1 mps 608 mmHg 22%
    02:00 +23°C° 0 mm 1 mps 608 mmHg 22%
    03:00 +22°C° 0 mm 1 mps 608 mmHg 22%
    04:00 +22°C° 0 mm 1 mps 608 mmHg 23%
    05:00 +21°C° 0 mm 1 mps 607 mmHg 23%
    06:00 +24°C° 0 mm 1 mps 609 mmHg 20%
    07:00 +27°C° 0 mm 1 mps 610 mmHg 17%
    08:00 +29°C° 0 mm 1 mps 611 mmHg 14%
    09:00 +31°C° 0 mm 2 mps 611 mmHg 13%
    10:00 +33°C° 0 mm 3 mps 612 mmHg 11%
    11:00 +35°C° 0 mm 4 mps 612 mmHg 10%
    12:00 +36°C° 0 mm 5 mps 612 mmHg 9%
    13:00 +38°C° 0 mm 6 mps 612 mmHg 9%
    14:00 +39°C° 0 mm 7 mps 612 mmHg 8%
    15:00 +38°C° 0 mm 7 mps 611 mmHg 8%
    16:00 +38°C° 0 mm 8 mps 611 mmHg 9%
    17:00 +38°C° 0 mm 8 mps 611 mmHg 10%
    18:00 +34°C° 0 mm 7 mps 610 mmHg 12%
    19:00 +32°C° 0 mm 5 mps 610 mmHg 14%
    20:00 +29°C° 0 mm 4 mps 609 mmHg 17%
    21:00 +27°C° 0 mm 3 mps 609 mmHg 19%
    22:00 +26°C° 0 mm 2 mps 608 mmHg 21%
    23:00 +24°C° 0 mm 2 mps 608 mmHg 23%

    23 July, Tuesday

    Time Temperature Precipitation Wind Pressure Humidity
    00:00 +24°C° 0 mm 1 mps 608 mmHg 25%
    01:00 +23°C° 0 mm 1 mps 607 mmHg 26%
    02:00 +22°C° 0 mm 1 mps 607 mmHg 28%
    03:00 +22°C° 0 mm 1 mps 607 mmHg 28%
    04:00 +21°C° 0 mm 1 mps 607 mmHg 29%
    05:00 +21°C° 0 mm 1 mps 607 mmHg 30%
    06:00 +23°C° 0 mm 1 mps 608 mmHg 27%
    07:00 +26°C° 0 mm 1 mps 609 mmHg 23%
    08:00 +28°C° 0 mm 1 mps 610 mmHg 20%
    09:00 +30°C° 0 mm 1 mps 610 mmHg 18%
    10:00 +31°C° 0 mm 2 mps 610 mmHg 16%
    11:00 +34°C° 0 mm 2 mps 611 mmHg 14%
    12:00 +35°C° 0 mm 2 mps 611 mmHg 13%
    13:00 +36°C° 0 mm 3 mps 611 mmHg 12%
    14:00 +37°C° 0 mm 3 mps 611 mmHg 10%
    15:00 +37°C° 0 mm 4 mps 610 mmHg 11%
    16:00 +37°C° 0 mm 5 mps 610 mmHg 11%
    17:00 +37°C° 0 mm 5 mps 610 mmHg 11%
    18:00 +35°C° 0 mm 5 mps 609 mmHg 13%
    19:00 +32°C° 0 mm 4 mps 609 mmHg 16%
    20:00 +29°C° 0 mm 3 mps 608 mmHg 19%
    21:00 +28°C° 0 mm 3 mps 608 mmHg 21%
    22:00 +26°C° 0 mm 2 mps 608 mmHg 22%
    23:00 +25°C° 0 mm 2 mps 607 mmHg 24%

    24 July, Wednesday

    Time Temperature Precipitation Wind Pressure Humidity
    00:00 +24°C° 0 mm 2 mps 607 mmHg 25%
    01:00 +23°C° 0 mm 2 mps 606 mmHg 27%
    02:00 +23°C° 0 mm 1 mps 606 mmHg 28%
    03:00 +22°C° 0 mm 1 mps 606 mmHg 29%
    04:00 +21°C° 0 mm 1 mps 606 mmHg 30%
    05:00 +21°C° 0 mm 1 mps 606 mmHg 31%
    06:00 +23°C° 0 mm 1 mps 607 mmHg 27%
    07:00 +25°C° 0 mm 1 mps 608 mmHg 23%
    08:00 +28°C° 0 mm 1 mps 609 mmHg 19%
    09:00 +29°C° 0 mm 1 mps 609 mmHg 17%
    10:00 +31°C° 0 mm 2 mps 610 mmHg 15%
    11:00 +34°C° 0 mm 2 mps 610 mmHg 12%
    12:00 +35°C° 0 mm 3 mps 610 mmHg 11%
    13:00 +36°C° 0 mm 3 mps 610 mmHg 10%
    14:00 +37°C° 0 mm 3 mps 610 mmHg 9%
    15:00 +37°C° 0 mm 5 mps 609 mmHg 9%
    16:00 +38°C° 0 mm 6 mps 609 mmHg 9%
    17:00 +38°C° 0 mm 8 mps 609 mmHg 10%
    18:00 +34°C° 0 mm 7 mps 608 mmHg 12%
    19:00 +32°C° 0 mm 5 mps 608 mmHg 14%
    20:00 +29°C° 0 mm 4 mps 607 mmHg 16%
    21:00 +27°C° 0 mm 3 mps 607 mmHg 18%
    22:00 +26°C° 0 mm 3 mps 607 mmHg 20%
    23:00 +24°C° 0 mm 2 mps 607 mmHg 22%
    Show more